[[{"header":{"parameterUnit":"m.s-1","parameterCategory":2,"la1":30.2991,"la2":30.254,"lo1":-89.0895,"lo2":-89.0444,"dy":0.0017,"dx":0.0017,"nx":28,"ny":28,"refTime":"2024-08-23T03:00:00:Z","depth":"0","parameterNumber":2,"parameterNumberName":"U-component_of_CURRENTS"},"data":[0,0,0,0,0,0,0,0,0,0,0,0,0,0,0,0,0,0,0,0,0,0,0,0,0,0,0,0,0,0,0,0,0,0,0,0,0,0,0,0,0,0,0,0,0,0,0,0,0,0,0,0,0,0,0,0,0,0,0.1756,0.1756,0,0.1737,0.1737,0.1736,0.1723,0.1724,0.1724,0.1724,0.169,0.1689,0.1688,0,0,0,0,0,0,0,0,0,0,0,0,0,0.1788,0.1787,0.1756,0.1756,0.1756,0.1737,0.1737,0.1736,0.1723,0.1724,0.1724,0.1724,0.169,0.1689,0.1688,0,0,0,0,0,0,0,0,0,0,0,0,0,0.177,0.1787,0.1756,0.1749,0.1749,0.1737,0.1737,0.1736,0.1723,0.1724,0.1724,0.1724,0.1691,0.1689,0.1688,0.1674,0,0,0.1683,0.1682,0,0,0,0,0,0,0,0,0.1771,0.1768,0.175,0.175,0.1749,0.1735,0.1735,0.1715,0.1723,0.1731,0.1724,0.1724,0.1705,0.1702,0.1695,0.1673,0.1671,0.1683,0.1682,0.1681,0.1681,0,0,0,0,0,0,0,0.1772,0.1769,0.1746,0.175,0.175,0.1749,0.1747,0.1731,0.1715,0.173,0.173,0.1731,0.1704,0.1697,0.1694,0.1671,0.1683,0.1681,0.168,0.168,0.1674,0.1675,0,0,0,0,0,0,0.1778,0.177,0.1747,0.1746,0.1763,0.1749,0.1746,0.1737,0.1715,0.1713,0.1731,0.1731,0.1699,0.1696,0.1693,0.1703,0.1681,0.168,0.1679,0.1673,0.1674,0.1675,0,0,0,0,0,0,0.1779,0.1776,0.1748,0.176,0.1757,0.1748,0.1739,0.1737,0.1735,0.1717,0.1713,0.1732,0.1699,0.1695,0.169,0.17,0.1679,0.1678,0.1673,0.1674,0.1675,0.1705,0,0,0,0,0,0,0.178,0.1776,0.1771,0.176,0.1757,0.1748,0.1739,0.1737,0.1737,0.1736,0.1717,0.1713,0.1699,0.1693,0.1689,0.1698,0.1676,0.1672,0.1673,0.1674,0.1703,0.1707,0.1711,0,0,0,0,0,0.1781,0.1773,0.1771,0.1768,0.175,0.1749,0.1747,0.174,0.1737,0.1738,0.1729,0.1714,0.1699,0.1692,0.1687,0.1696,0.1671,0.1673,0.1674,0.1702,0.1707,0.1711,0,0,0,0,0,0,0.1776,0.1771,0.1768,0.1757,0.1758,0.1748,0.1747,0.1744,0.1736,0.1736,0.1718,0.1714,0.1716,0.1703,0.1695,0.1701,0.1685,0.1686,0.1708,0.1712,0.1716,0.1726,0.1675,0,0,0,0,0,0.1776,0.1772,0.1768,0.176,0.1762,0.1756,0.1754,0.1752,0.1746,0.1742,0.1731,0.1722,0.1718,0.1713,0.1706,0.1702,0.1705,0.1708,0.1712,0.1715,0.1721,0.1736,0.1741,0.1681,0.1681,0.1681,0,0,0.177,0.1768,0.1764,0.176,0.1758,0.1762,0.1755,0.1756,0.1762,0.1739,0.174,0.1733,0.1722,0.1723,0.1723,0.1713,0.1735,0.1717,0.172,0.1725,0.1738,0.1744,0.1749,0.1682,0.1682,0.1682,0,0,0.1766,0.1759,0.1759,0.1764,0.1769,0.1767,0.1772,0.1768,0.177,0.1768,0.1762,0.1765,0.1746,0.1749,0.1746,0.1767,0.1756,0.1763,0.1785,0.1799,0.1804,0.1809,0.1826,0.1831,0.1762,0.1762,0.1762,0,0.1763,0.1758,0.176,0.1767,0.1771,0.1773,0.1778,0.1782,0.1778,0.1783,0.1772,0.1769,0.1761,0.1774,0.1785,0.1775,0.1781,0.1767,0.1804,0.1809,0.1813,0.1829,0.1834,0.1764,0.1764,0.1764,0.1763,0,0.1762,0.1762,0.1765,0.1774,0.178,0.1785,0.1795,0.1802,0.1801,0.1802,0.1813,0.1805,0.1804,0.1806,0.1799,0.1828,0.1823,0.1809,0.1792,0.1821,0.1836,0.1841,0.1766,0.1766,0.1765,0.1765,0,0,0.1743,0.1762,0.1762,0.1769,0.1785,0.1787,0.1807,0.182,0.1831,0.1832,0.1844,0.1849,0.1848,0.1847,0.1844,0.1859,0.1897,0.1849,0.1849,0.1865,0.1932,0.1932,0.1938,0.1887,0.1888,0.1889,0.1933,0,0.1742,0.1754,0.1765,0.1776,0.1783,0.1799,0.1814,0.1829,0.1839,0.1853,0.1863,0.1869,0.1863,0.1864,0.1881,0.1895,0.1912,0.1887,0.1903,0.1904,0.19,0.1945,0.1865,0.1898,0.1939,0.1939,0.194,0,0.1734,0.1745,0.1755,0.1777,0.1782,0.1791,0.1816,0.183,0.186,0.1867,0.1884,0.189,0.1924,0.1905,0.1948,0.1932,0.1938,0.1945,0.1946,0.194,0.1914,0.1875,0.1906,0.1851,0.1949,0.1948,0.1947,0,0.1712,0.1735,0.1742,0.175,0.1776,0.1787,0.1803,0.1832,0.1844,0.1881,0.189,0.1924,0.1941,0.196,0.1985,0.1967,0.203,0.2001,0.2007,0.2006,0.1939,0.1932,0.1917,0.2028,0.2028,0.2028,0.2028,0,0.1699,0.1703,0.1733,0.1736,0.1743,0.1773,0.1783,0.1807,0.184,0.1861,0.1895,0.1921,0.1956,0.1995,0.2005,0.2037,0.2046,0.2027,0.2024,0.1949,0.1942,0.189,0.184,0.2029,0.2029,0.2029,0.2028,0,0.1663,0.1685,0.1693,0.1724,0.1729,0.1735,0.176,0.1772,0.1813,0.1846,0.186,0.1928,0.199,0.2025,0.2069,0.2064,0.2028,0.2092,0.2009,0.1995,0.1939,0.1893,0.1844,0.1775,0.2104,0.2104,0.2104,0,0.164,0.1643,0.1669,0.1671,0.1682,0.1693,0.17,0.1743,0.1766,0.1851,0.1871,0.195,0.1995,0.2071,0.2094,0.2122,0.2038,0.205,0.2,0.1943,0.1889,0.1832,0.1772,0.1922,0.1921,0.192,0.1919,0,0.1598,0.1612,0.162,0.1626,0.1634,0.1633,0.1659,0.1668,0.1737,0.1772,0.1844,0.1892,0.2,0.2008,0.2062,0.2064,0.1941,0.2031,0.1984,0.1765,0.1688,0.1616,0.1892,0.1911,0.1911,0.1912,0.1913,0.1913,0.1562,0.1557,0.1574,0.1567,0.1577,0.1572,0.1545,0.1595,0.1615,0.1657,0.1767,0.1806,0.1891,0.1964,0.1968,0.1925,0.1901,0.1842,0.1799,0.1755,0.166,0.1931,0.1938,0.1939,0.194,0.1941,0.1942,0,0.151,0.1511,0.1511,0.1501,0.1479,0.1505,0.1509,0.1475,0.1475,0.1563,0.1606,0.1675,0.1699,0.1763,0.1769,0.1689,0.1626,0.1627,0.1507,0.1463,0.1717,0.1681,0.1618,0.1618,0.1618,0.1618,0.1618,0.1618,0.1485,0.1462,0.1457,0.1398,0.1386,0.1324,0.1301,0.1285,0.1316,0.1327,0.1364,0.1425,0.1523,0.1577,0.1525,0.1496,0.1349,0.1307,0.1291,0.145,0.1466,0.1481,0.1438,0.1325,0.1325,0.0994,0.0991,0.0988]},{"header":{"parameterUnit":"m.s-1","parameterCategory":2,"la1":30.2991,"la2":30.254,"lo1":-89.0895,"lo2":-89.0444,"dy":0.0017,"dx":0.0017,"nx":28,"ny":28,"refTime":"2024-08-23T03:00:00:Z","depth":"0","parameterNumber":3,"parameterNumberName":"V-component_of_CURRENTS"},"data":[0,0,0,0,0,0,0,0,0,0,0,0,0,0,0,0,0,0,0,0,0,0,0,0,0,0,0,0,0,0,0,0,0,0,0,0,0,0,0,0,0,0,0,0,0,0,0,0,0,0,0,0,0,0,0,0,0,0,-0.024,-0.0241,0,-0.0277,-0.0277,-0.0278,-0.03,-0.03,-0.03,-0.03,-0.0335,-0.0335,-0.0336,0,0,0,0,0,0,0,0,0,0,0,0,0,-0.0199,-0.0199,-0.024,-0.0241,-0.0241,-0.0277,-0.0277,-0.0278,-0.03,-0.03,-0.03,-0.03,-0.0334,-0.0335,-0.0336,0,0,0,0,0,0,0,0,0,0,0,0,0,-0.0224,-0.02,-0.024,-0.0256,-0.0258,-0.0277,-0.0277,-0.0278,-0.03,-0.03,-0.03,-0.03,-0.0334,-0.0335,-0.0336,-0.0341,0,0,-0.034,-0.0341,0,0,0,0,0,0,0,0,-0.0223,-0.0226,-0.0254,-0.0255,-0.0257,-0.0284,-0.0275,-0.0299,-0.03,-0.0284,-0.03,-0.03,-0.0317,-0.032,-0.0327,-0.0343,-0.0345,-0.034,-0.0341,-0.0342,-0.0342,0,0,0,0,0,0,0,-0.0221,-0.0224,-0.0255,-0.0254,-0.0256,-0.0265,-0.0269,-0.028,-0.03,-0.0285,-0.0287,-0.0291,-0.0318,-0.0325,-0.0328,-0.0345,-0.034,-0.0341,-0.0342,-0.0343,-0.0357,-0.0357,0,0,0,0,0,0,-0.0216,-0.0223,-0.0254,-0.0256,-0.024,-0.0265,-0.027,-0.0275,-0.03,-0.0303,-0.0291,-0.0292,-0.0323,-0.0326,-0.0329,-0.0324,-0.0342,-0.0343,-0.0344,-0.0358,-0.0357,-0.0357,0,0,0,0,0,0,-0.0215,-0.0218,-0.0252,-0.024,-0.0245,-0.0266,-0.0272,-0.0276,-0.0281,-0.0303,-0.0307,-0.0292,-0.0323,-0.0327,-0.0336,-0.0326,-0.0343,-0.0345,-0.0358,-0.0358,-0.0357,-0.0321,0,0,0,0,0,0,-0.0213,-0.0218,-0.0217,-0.024,-0.0245,-0.0257,-0.0272,-0.0277,-0.0283,-0.0285,-0.0306,-0.0309,-0.0324,-0.0334,-0.0337,-0.0328,-0.0346,-0.0359,-0.0358,-0.0357,-0.0323,-0.0319,-0.0317,0,0,0,0,0,-0.0212,-0.0209,-0.0217,-0.0221,-0.0245,-0.0257,-0.026,-0.0276,-0.0283,-0.0282,-0.0297,-0.0309,-0.0332,-0.0334,-0.0338,-0.0329,-0.0359,-0.0358,-0.0357,-0.0324,-0.032,-0.0317,0,0,0,0,0,0,-0.0186,-0.0211,-0.0221,-0.0225,-0.0237,-0.026,-0.026,-0.0272,-0.0284,-0.0285,-0.0306,-0.0311,-0.0315,-0.0327,-0.033,-0.0331,-0.0346,-0.0346,-0.0319,-0.0316,-0.0313,-0.0299,-0.0347,0,0,0,0,0,-0.0182,-0.0188,-0.0211,-0.0212,-0.0217,-0.0238,-0.0244,-0.0255,-0.027,-0.0275,-0.0291,-0.0305,-0.0315,-0.0319,-0.0332,-0.0332,-0.0346,-0.0328,-0.0325,-0.0323,-0.0314,-0.0327,-0.0324,-0.0354,-0.0354,-0.0354,0,0,-0.0172,-0.0186,-0.019,-0.0207,-0.0218,-0.0221,-0.0242,-0.0248,-0.0246,-0.0277,-0.0277,-0.0296,-0.0314,-0.0316,-0.0318,-0.0324,-0.0322,-0.0321,-0.0319,-0.0311,-0.0326,-0.0323,-0.032,-0.0354,-0.0354,-0.0354,0,0,-0.0155,-0.0168,-0.0168,-0.0177,-0.0192,-0.0204,-0.0204,-0.0225,-0.0229,-0.0236,-0.0256,-0.0266,-0.0285,-0.0292,-0.0299,-0.0285,-0.0308,-0.0291,-0.0261,-0.0273,-0.0271,-0.0269,-0.0288,-0.0288,-0.0286,-0.0286,-0.0286,0,-0.0141,-0.0145,-0.0167,-0.0168,-0.0168,-0.0194,-0.0187,-0.0196,-0.0216,-0.0214,-0.023,-0.0253,-0.0271,-0.0268,-0.0265,-0.0277,-0.0292,-0.0273,-0.0269,-0.0267,-0.0266,-0.0285,-0.0286,-0.0284,-0.0284,-0.0285,-0.0285,0,-0.0126,-0.0127,-0.0125,-0.0135,-0.0138,-0.0135,-0.015,-0.015,-0.0162,-0.0175,-0.0179,-0.0206,-0.0218,-0.0226,-0.0242,-0.0237,-0.0253,-0.0266,-0.0277,-0.026,-0.0283,-0.0284,-0.0281,-0.0282,-0.0283,-0.0283,0,0,-0.0097,-0.0112,-0.0109,-0.0105,-0.0118,-0.0116,-0.0108,-0.0108,-0.0098,-0.0122,-0.0112,-0.0137,-0.0157,-0.0166,-0.0188,-0.0198,-0.0207,-0.0224,-0.0226,-0.024,-0.0241,-0.0244,-0.0246,-0.0221,-0.0221,-0.0221,-0.0262,0,-0.0075,-0.0067,-0.0079,-0.0061,-0.0056,-0.0068,-0.0054,-0.0057,-0.0068,-0.0065,-0.0091,-0.0098,-0.0132,-0.0139,-0.0154,-0.019,-0.0207,-0.0195,-0.0257,-0.0258,-0.0262,-0.0246,-0.0239,-0.0274,-0.0263,-0.0264,-0.0264,0,-0.0053,-0.005,-0.0032,-0.002,-0.0017,-0.0008,0.0013,0.0017,0.0012,0.0004,-0.0012,-0.0039,-0.0054,-0.009,-0.0141,-0.0133,-0.0183,-0.0216,-0.0219,-0.0232,-0.0263,-0.0288,-0.0277,-0.0377,-0.0266,-0.0265,-0.0265,0,-0.002,-0.0012,0.0006,0.0008,0.0015,0.0032,0.0037,0.0039,0.0052,0.0042,0.0048,0.0015,0.0006,-0.0054,-0.0123,-0.0135,-0.0181,-0.021,-0.0262,-0.0264,-0.0273,-0.0275,-0.0361,-0.0251,-0.0251,-0.0251,-0.0251,0,0.0008,0.0025,0.0024,0.0035,0.007,0.0063,0.0095,0.0097,0.0104,0.013,0.0082,0.0098,0.0015,-0.0022,-0.01,-0.0174,-0.0167,-0.025,-0.0269,-0.0261,-0.0262,-0.0362,-0.041,-0.0252,-0.0252,-0.0252,-0.0252,0,0.0039,0.0036,0.006,0.0075,0.0084,0.0107,0.0129,0.0154,0.0152,0.0185,0.0186,0.0163,0.012,0.0032,-0.0058,-0.0136,-0.0269,-0.0248,-0.0234,-0.025,-0.0395,-0.044,-0.0532,-0.0585,-0.0316,-0.0316,-0.0316,0,0.0055,0.0069,0.0091,0.011,0.0118,0.0145,0.0172,0.0178,0.0206,0.0233,0.0262,0.0231,0.0226,0.0092,-0.0043,-0.0176,-0.0275,-0.0273,-0.0295,-0.0395,-0.046,-0.0497,-0.0539,-0.0302,-0.0302,-0.0302,-0.0302,0,0.0088,0.0094,0.0113,0.0148,0.0178,0.021,0.0248,0.0279,0.0302,0.0336,0.0379,0.0376,0.0263,0.0146,-0.0035,-0.0138,-0.034,-0.0279,-0.0385,-0.0453,-0.0495,-0.0558,-0.0291,-0.0303,-0.0303,-0.0303,-0.0303,-0.0303,0.0116,0.0133,0.0155,0.0189,0.0225,0.0273,0.03,0.0352,0.0406,0.0455,0.0463,0.0466,0.0299,0.0062,-0.0082,-0.0349,-0.0352,-0.0441,-0.0487,-0.0517,-0.0566,-0.0298,-0.0327,-0.0328,-0.0328,-0.0328,-0.0328,0,0.0147,0.0161,0.0195,0.0232,0.027,0.0284,0.0349,0.0378,0.0447,0.0501,0.0529,0.0447,0.0241,0.0007,-0.0326,-0.0523,-0.0604,-0.0636,-0.0697,-0.0731,-0.0498,-0.0494,-0.0555,-0.0555,-0.0555,-0.0555,-0.0555,-0.0555,0.0164,0.0192,0.02,0.0256,0.0286,0.0327,0.0361,0.0416,0.0457,0.0492,0.0488,0.0463,0.0265,-0.0228,-0.065,-0.0746,-0.0896,-0.0905,-0.0994,-0.0843,-0.0829,-0.0816,-0.0825,-0.0955,-0.0955,-0.121,-0.1213,-0.1214]}],[{"header":{"parameterUnit":"m.s-1","parameterCategory":2,"la1":30.2991,"la2":30.254,"lo1":-89.0895,"lo2":-89.0444,"dy":0.0017,"dx":0.0017,"nx":28,"ny":28,"refTime":"2024-08-23T03:00:00:Z","depth":"2","parameterNumber":2,"parameterNumberName":"U-component_of_CURRENTS"},"data":[0,0,0,0,0,0,0,0,0,0,0,0,0,0,0,0,0,0,0,0,0,0,0,0,0,0,0,0,0,0,0,0,0,0,0,0,0,0,0,0,0,0,0,0,0,0,0,0,0,0,0,0,0,0,0,0,0,0,0.1809,0.1809,0,0.1792,0.1792,0.1792,0.1781,0.1781,0.1782,0.1782,0.1753,0.1753,0.1752,0,0,0,0,0,0,0,0,0,0,0,0,0,0.1835,0.1834,0.1809,0.1809,0.1809,0.1792,0.1792,0.1792,0.1781,0.1781,0.1782,0.1782,0.1754,0.1753,0.1752,0,0,0,0,0,0,0,0,0,0,0,0,0,0.182,0.1834,0.1809,0.1803,0.1802,0.1792,0.1792,0.1791,0.1781,0.1781,0.1782,0.1782,0.1754,0.1753,0.1752,0.174,0,0,0.1748,0.1747,0,0,0,0,0,0,0,0,0.1821,0.1819,0.1804,0.1803,0.1803,0.1791,0.1791,0.1774,0.1781,0.1787,0.1782,0.1782,0.1766,0.1764,0.1758,0.1739,0.1738,0.1748,0.1747,0.1746,0.1746,0,0,0,0,0,0,0,0.1822,0.1819,0.18,0.1804,0.1803,0.1803,0.1801,0.1788,0.1774,0.1787,0.1786,0.1788,0.1765,0.1759,0.1757,0.1737,0.1748,0.1746,0.1746,0.1745,0.1745,0.1746,0,0,0,0,0,0,0.1827,0.182,0.1801,0.18,0.1815,0.1802,0.18,0.1793,0.1774,0.1772,0.1788,0.1787,0.1761,0.1758,0.1756,0.1768,0.1746,0.1745,0.1744,0.1744,0.1745,0.1746,0,0,0,0,0,0,0.1828,0.1825,0.1801,0.1812,0.1809,0.1802,0.1794,0.1792,0.1792,0.1776,0.1773,0.179,0.1761,0.1758,0.1756,0.1766,0.1744,0.1743,0.1744,0.1745,0.1746,0.1775,0,0,0,0,0,0,0.1828,0.1825,0.1821,0.1812,0.1809,0.1803,0.1794,0.1792,0.1793,0.1793,0.1777,0.1774,0.1761,0.1758,0.1754,0.1764,0.1742,0.1743,0.1744,0.1745,0.1773,0.1777,0.1781,0,0,0,0,0,0.1829,0.1823,0.1821,0.1819,0.1804,0.1803,0.1801,0.1796,0.1793,0.1795,0.1788,0.1775,0.1765,0.1757,0.1753,0.1762,0.1742,0.1744,0.1745,0.1772,0.1776,0.1781,0,0,0,0,0,0,0.1825,0.1821,0.1819,0.181,0.1811,0.1802,0.1802,0.18,0.1795,0.1795,0.1779,0.1776,0.178,0.1768,0.176,0.1769,0.1753,0.1754,0.1775,0.1779,0.1783,0.1792,0.1741,0,0,0,0,0,0.1825,0.1822,0.182,0.1813,0.1815,0.181,0.1809,0.1808,0.1803,0.1801,0.1791,0.1784,0.1783,0.1779,0.1774,0.1772,0.1774,0.1778,0.1782,0.1785,0.1791,0.1805,0.1811,0.1752,0.1752,0.1752,0,0,0.182,0.1819,0.1816,0.1813,0.1812,0.1817,0.181,0.1812,0.1818,0.1798,0.1801,0.1795,0.1787,0.179,0.1791,0.1781,0.1804,0.1787,0.179,0.1795,0.1808,0.1813,0.1818,0.1753,0.1753,0.1753,0,0,0.1817,0.1811,0.1813,0.1818,0.1823,0.1822,0.1827,0.1824,0.1827,0.1827,0.1823,0.1827,0.1812,0.1816,0.1815,0.1836,0.1826,0.1833,0.1854,0.1868,0.1872,0.1877,0.1892,0.1897,0.1832,0.1832,0.1832,0,0.1814,0.1811,0.1814,0.1821,0.1826,0.1828,0.1834,0.1839,0.1837,0.1842,0.1832,0.1832,0.1826,0.1841,0.1853,0.1844,0.1849,0.1836,0.1872,0.1877,0.188,0.1895,0.19,0.1834,0.1834,0.1833,0.1833,0,0.1815,0.1816,0.1819,0.183,0.1836,0.1841,0.1852,0.186,0.186,0.1862,0.1875,0.1869,0.1869,0.1872,0.1867,0.1896,0.189,0.1877,0.186,0.1888,0.1902,0.1907,0.1836,0.1836,0.1835,0.1835,0,0,0.1795,0.1816,0.1816,0.1825,0.1842,0.1844,0.1865,0.188,0.1891,0.1893,0.1907,0.1914,0.1913,0.1913,0.1911,0.1926,0.1961,0.1915,0.1915,0.1929,0.1994,0.1987,0.1992,0.1952,0.1953,0.1954,0.1994,0,0.1795,0.1809,0.1821,0.1834,0.1841,0.1858,0.1873,0.189,0.1901,0.1916,0.1926,0.1934,0.1928,0.1929,0.1946,0.196,0.1976,0.1952,0.1966,0.1967,0.1956,0.1998,0.1807,0.1827,0.1999,0.2,0.2001,0,0.1788,0.18,0.1812,0.1836,0.1841,0.1851,0.1877,0.1892,0.1923,0.193,0.1947,0.1954,0.1987,0.1969,0.2011,0.1995,0.2,0.2006,0.2008,0.1994,0.197,0.1826,0.183,0.2009,0.2009,0.2008,0.2008,0,0.1767,0.1791,0.18,0.1808,0.1836,0.1848,0.1864,0.1894,0.1906,0.1944,0.1953,0.1987,0.2004,0.2021,0.2045,0.2028,0.2087,0.2059,0.2058,0.2057,0.1895,0.1879,0.2085,0.2085,0.2085,0.2085,0.2084,0,0.1755,0.1759,0.1791,0.1794,0.1803,0.1834,0.1845,0.187,0.1904,0.1925,0.1958,0.1984,0.2018,0.2055,0.2063,0.209,0.2102,0.2077,0.2072,0.1902,0.1886,0.204,0.2034,0.2086,0.2086,0.2085,0.2085,0,0.1719,0.1742,0.1751,0.1784,0.1789,0.1796,0.1822,0.1836,0.1876,0.1909,0.1923,0.1989,0.2047,0.208,0.2122,0.2114,0.2135,0.2135,0.1942,0.1915,0.2089,0.2085,0.2137,0.2137,0.2137,0.2137,0.2137,0,0.1697,0.1701,0.1728,0.173,0.1742,0.1755,0.1762,0.1807,0.183,0.1913,0.1932,0.2007,0.2044,0.2112,0.2111,0.2129,0.2158,0.1964,0.1901,0.2107,0.2097,0.2092,0.2088,0.1693,0.1689,0.1686,0.1684,0,0.1656,0.167,0.1679,0.1685,0.1694,0.1695,0.1722,0.1732,0.1801,0.1831,0.1899,0.1939,0.2019,0.1956,0.1992,0.1978,0.1948,0.191,0.2163,0.1724,0.1696,0.1684,0.1692,0.1658,0.1661,0.1662,0.1664,0.1665,0.162,0.1616,0.1633,0.1627,0.1638,0.1634,0.1608,0.1656,0.1672,0.1698,0.1798,0.1788,0.1815,0.1778,0.1741,0.1721,0.1861,0.1753,0.1758,0.1767,0.1724,0.1699,0.1653,0.1656,0.1658,0.166,0.1661,0,0.1567,0.1569,0.1571,0.1562,0.1542,0.1566,0.1571,0.1541,0.1534,0.1581,0.1599,0.1476,0.1423,0.1464,0.1393,0.142,0.1369,0.1359,0.1252,0.128,0.1304,0.1233,0.1034,0.1032,0.103,0.1029,0,0,0.1542,0.152,0.1516,0.146,0.1448,0.1395,0.1372,0.1357,0.1367,0.1332,0.1295,0.1338,0.1412,0.1186,0.1172,0.1089,0.1173,0.1049,0.1553,0.1455,0.1476,0.1537,0.1461,0,0,0,0,0]},{"header":{"parameterUnit":"m.s-1","parameterCategory":2,"la1":30.2991,"la2":30.254,"lo1":-89.0895,"lo2":-89.0444,"dy":0.0017,"dx":0.0017,"nx":28,"ny":28,"refTime":"2024-08-23T03:00:00:Z","depth":"2","parameterNumber":3,"parameterNumberName":"V-component_of_CURRENTS"},"data":[0,0,0,0,0,0,0,0,0,0,0,0,0,0,0,0,0,0,0,0,0,0,0,0,0,0,0,0,0,0,0,0,0,0,0,0,0,0,0,0,0,0,0,0,0,0,0,0,0,0,0,0,0,0,0,0,0,0,-0.0195,-0.0195,0,-0.0231,-0.0232,-0.0232,-0.0255,-0.0255,-0.0255,-0.0256,-0.0292,-0.0293,-0.0294,0,0,0,0,0,0,0,0,0,0,0,0,0,-0.0152,-0.0152,-0.0195,-0.0195,-0.0196,-0.0231,-0.0232,-0.0232,-0.0255,-0.0255,-0.0255,-0.0256,-0.0292,-0.0293,-0.0294,0,0,0,0,0,0,0,0,0,0,0,0,0,-0.0178,-0.0153,-0.0195,-0.0211,-0.0213,-0.0231,-0.0232,-0.0232,-0.0255,-0.0255,-0.0256,-0.0256,-0.0292,-0.0293,-0.0294,-0.0298,0,0,-0.0298,-0.0299,0,0,0,0,0,0,0,0,-0.0176,-0.0179,-0.0209,-0.021,-0.0212,-0.0239,-0.023,-0.0254,-0.0255,-0.0239,-0.0256,-0.0256,-0.0274,-0.0277,-0.0284,-0.03,-0.0302,-0.0298,-0.0299,-0.03,-0.03,0,0,0,0,0,0,0,-0.0174,-0.0178,-0.0209,-0.0209,-0.0211,-0.0219,-0.0223,-0.0235,-0.0255,-0.0241,-0.0243,-0.0246,-0.0275,-0.0282,-0.0285,-0.0302,-0.0298,-0.0299,-0.03,-0.0301,-0.0318,-0.0317,0,0,0,0,0,0,-0.0169,-0.0176,-0.0208,-0.0211,-0.0194,-0.022,-0.0224,-0.023,-0.0255,-0.0259,-0.0246,-0.0247,-0.028,-0.0283,-0.0286,-0.0283,-0.03,-0.0301,-0.0302,-0.0318,-0.0318,-0.0317,0,0,0,0,0,0,-0.0168,-0.0172,-0.0207,-0.0194,-0.0199,-0.022,-0.0227,-0.0231,-0.0237,-0.0259,-0.0263,-0.0249,-0.028,-0.0284,-0.0294,-0.0285,-0.0301,-0.0303,-0.0318,-0.0318,-0.0317,-0.0283,0,0,0,0,0,0,-0.0167,-0.0171,-0.0172,-0.0194,-0.0199,-0.0212,-0.0227,-0.0231,-0.0239,-0.0241,-0.0263,-0.0266,-0.0281,-0.0292,-0.0295,-0.0287,-0.0304,-0.0319,-0.0318,-0.0318,-0.0285,-0.0282,-0.0279,0,0,0,0,0,-0.0165,-0.0164,-0.0172,-0.0176,-0.0201,-0.0212,-0.0215,-0.0231,-0.0239,-0.0238,-0.0254,-0.0266,-0.029,-0.0293,-0.0297,-0.0289,-0.0319,-0.0318,-0.0318,-0.0286,-0.0282,-0.0279,0,0,0,0,0,0,-0.0143,-0.0167,-0.0176,-0.0182,-0.0194,-0.0215,-0.0216,-0.0228,-0.0241,-0.0243,-0.0264,-0.0269,-0.0274,-0.0286,-0.0288,-0.0292,-0.0306,-0.0306,-0.028,-0.0277,-0.0274,-0.026,-0.0305,0,0,0,0,0,-0.0139,-0.0146,-0.0167,-0.017,-0.0175,-0.0196,-0.0202,-0.0213,-0.0228,-0.0234,-0.0249,-0.0264,-0.0274,-0.0279,-0.0292,-0.0294,-0.0307,-0.0291,-0.0288,-0.0285,-0.0276,-0.0289,-0.0287,-0.0315,-0.0315,-0.0315,0,0,-0.0131,-0.0144,-0.0148,-0.0166,-0.0177,-0.0179,-0.02,-0.0206,-0.0205,-0.0235,-0.0237,-0.0256,-0.0274,-0.0277,-0.028,-0.0285,-0.0285,-0.0284,-0.0282,-0.0274,-0.0288,-0.0286,-0.0283,-0.0314,-0.0315,-0.0315,0,0,-0.0116,-0.013,-0.013,-0.0139,-0.0154,-0.0165,-0.0165,-0.0185,-0.019,-0.0198,-0.0218,-0.0229,-0.0248,-0.0255,-0.0262,-0.025,-0.0272,-0.0255,-0.0227,-0.024,-0.0237,-0.0235,-0.0254,-0.0254,-0.0251,-0.0251,-0.0251,0,-0.0104,-0.0109,-0.013,-0.013,-0.0131,-0.0156,-0.015,-0.0158,-0.0178,-0.0177,-0.0193,-0.0217,-0.0235,-0.0232,-0.023,-0.0242,-0.0256,-0.0239,-0.0235,-0.0234,-0.0233,-0.0252,-0.0252,-0.0249,-0.0249,-0.025,-0.025,0,-0.009,-0.0092,-0.009,-0.01,-0.0103,-0.0101,-0.0115,-0.0115,-0.0128,-0.0141,-0.0145,-0.0173,-0.0185,-0.0193,-0.0209,-0.0204,-0.0221,-0.0233,-0.0243,-0.0228,-0.0249,-0.025,-0.0247,-0.0247,-0.0248,-0.0248,0,0,-0.0065,-0.0079,-0.0077,-0.0072,-0.0085,-0.0083,-0.0075,-0.0075,-0.0065,-0.0091,-0.0081,-0.0106,-0.0127,-0.0135,-0.0157,-0.0167,-0.0177,-0.0193,-0.0195,-0.0209,-0.021,-0.0214,-0.0216,-0.0191,-0.0191,-0.0191,-0.0231,0,-0.0045,-0.0036,-0.0048,-0.003,-0.0025,-0.0036,-0.0023,-0.0026,-0.0037,-0.0035,-0.0061,-0.0068,-0.0103,-0.011,-0.0125,-0.016,-0.0177,-0.0165,-0.0225,-0.0227,-0.023,-0.0216,-0.0189,-0.0222,-0.0232,-0.0233,-0.0233,0,-0.0024,-0.0021,-0.0003,0.001,0.0013,0.0022,0.0042,0.0046,0.004,0.0032,0.0016,-0.0011,-0.0027,-0.0063,-0.0113,-0.0105,-0.0154,-0.0187,-0.0189,-0.0203,-0.0232,-0.0239,-0.0224,-0.0235,-0.0235,-0.0235,-0.0234,0,0.0007,0.0015,0.0033,0.0036,0.0043,0.0059,0.0065,0.0067,0.0079,0.0069,0.0074,0.0041,0.0032,-0.0028,-0.0096,-0.0108,-0.0153,-0.0181,-0.0233,-0.0234,-0.0227,-0.0227,-0.0222,-0.0222,-0.0222,-0.0222,-0.0222,0,0.0034,0.005,0.0051,0.0062,0.0095,0.0089,0.012,0.0122,0.0129,0.0154,0.0107,0.0123,0.004,0.0003,-0.0074,-0.0147,-0.014,-0.0221,-0.024,-0.0215,-0.0214,-0.0236,-0.0237,-0.0224,-0.0223,-0.0223,-0.0223,0,0.0063,0.0061,0.0084,0.01,0.0108,0.0131,0.0153,0.0178,0.0175,0.0208,0.0209,0.0186,0.0142,0.0056,-0.0033,-0.0109,-0.0187,-0.022,-0.0186,-0.0199,-0.027,-0.0269,-0.0285,-0.0286,-0.0286,-0.0286,-0.0286,0,0.0078,0.0091,0.0114,0.0132,0.014,0.0167,0.0194,0.02,0.0228,0.0255,0.0284,0.0253,0.0246,0.0113,-0.0015,-0.0146,-0.0176,-0.0224,-0.0243,-0.0257,-0.0274,-0.0272,-0.0271,-0.0227,-0.0226,-0.0226,-0.0226,0,0.0109,0.0115,0.0134,0.0169,0.0199,0.0231,0.0268,0.0299,0.0323,0.0356,0.0398,0.0394,0.0284,0.0172,-0.0006,-0.0096,-0.0201,-0.0224,-0.0239,-0.0212,-0.0204,-0.022,-0.022,-0.0224,-0.0224,-0.0224,-0.0224,-0.0224,0.0136,0.0153,0.0175,0.0208,0.0244,0.0292,0.0319,0.0373,0.0427,0.0471,0.0477,0.0462,0.0348,0.0122,-0.0012,-0.0172,-0.0181,-0.025,-0.025,-0.025,-0.0233,-0.0226,-0.0247,-0.0247,-0.0248,-0.0248,-0.0248,0,0.0167,0.0179,0.0213,0.025,0.029,0.0302,0.0368,0.0398,0.0469,0.0504,0.0527,0.0421,0.0308,0.0159,-0.0066,-0.0198,-0.0208,-0.0247,-0.0227,-0.0228,-0.0229,-0.021,-0.0218,-0.0219,-0.0219,-0.0219,0,0,0.0184,0.0213,0.0222,0.0278,0.0305,0.0349,0.0383,0.044,0.047,0.0505,0.0492,0.0477,0.0326,0.0171,0.0015,-0.011,-0.015,-0.0138,-0.0147,-0.0106,-0.0106,-0.0214,-0.0184,0,0,0,0,0]}],[{"header":{"parameterUnit":"m.s-1","parameterCategory":2,"la1":30.2991,"la2":30.254,"lo1":-89.0895,"lo2":-89.0444,"dy":0.0017,"dx":0.0017,"nx":28,"ny":28,"refTime":"2024-08-23T03:00:00:Z","depth":"4","parameterNumber":2,"parameterNumberName":"U-component_of_CURRENTS"},"data":[0,0,0,0,0,0,0,0,0,0,0,0,0,0,0,0,0,0,0,0,0,0,0,0,0,0,0,0,0,0,0,0,0,0,0,0,0,0,0,0,0,0,0,0,0,0,0,0,0,0,0,0,0,0,0,0,0,0,0.1104,0.1105,0,0.1133,0.1133,0.1134,0.1168,0.1168,0.1169,0.1169,0.1207,0.1207,0.1207,0,0,0,0,0,0,0,0,0,0,0,0,0,0.1067,0.1067,0.1104,0.1105,0.1105,0.1133,0.1134,0.1134,0.1167,0.1168,0.1169,0.117,0.1207,0.1207,0.1207,0,0,0,0,0,0,0,0,0,0,0,0,0,0.1087,0.1067,0.1104,0.1126,0.1129,0.1133,0.1134,0.1134,0.1167,0.1168,0.1169,0.117,0.1206,0.1207,0.1208,0.1192,0,0,0.1209,0.121,0,0,0,0,0,0,0,0,0.1086,0.1088,0.1123,0.1125,0.1128,0.1149,0.1134,0.1154,0.1167,0.1151,0.1169,0.1171,0.1188,0.1191,0.1192,0.1194,0.1195,0.1209,0.121,0.121,0.121,0,0,0,0,0,0,0,0.1084,0.1087,0.1114,0.1123,0.1126,0.1131,0.1135,0.1138,0.1163,0.1153,0.1155,0.1161,0.119,0.1191,0.1193,0.1196,0.1209,0.121,0.121,0.121,0.1268,0.1269,0,0,0,0,0,0,0.1083,0.1086,0.1113,0.1115,0.111,0.1131,0.1136,0.114,0.1163,0.1168,0.116,0.1162,0.1189,0.1192,0.1194,0.1246,0.121,0.1211,0.1211,0.1267,0.1268,0.1269,0,0,0,0,0,0,0.1082,0.1085,0.1112,0.1102,0.1106,0.1131,0.1136,0.114,0.1168,0.1169,0.1173,0.1187,0.119,0.1193,0.1221,0.1245,0.1211,0.1211,0.1265,0.1267,0.1269,0.1306,0,0,0,0,0,0,0.1081,0.1085,0.11,0.1102,0.1107,0.1131,0.1135,0.114,0.1169,0.1173,0.1193,0.1196,0.1191,0.122,0.1222,0.1246,0.1212,0.1264,0.1266,0.1268,0.1303,0.1309,0.1313,0,0,0,0,0,0.1079,0.109,0.11,0.1104,0.1122,0.1132,0.1135,0.1155,0.117,0.1184,0.1201,0.1197,0.1236,0.1222,0.1223,0.1248,0.1263,0.1266,0.1268,0.1301,0.1307,0.1313,0,0,0,0,0,0,0.1084,0.1095,0.1106,0.1121,0.1135,0.1139,0.1157,0.1169,0.1192,0.1205,0.1207,0.1211,0.1246,0.1242,0.1226,0.1272,0.125,0.1253,0.1275,0.1281,0.1286,0.1292,0.1212,0,0,0,0,0,0.109,0.1104,0.1113,0.113,0.1138,0.1153,0.1165,0.1178,0.1193,0.1206,0.122,0.1237,0.1252,0.1264,0.1274,0.1294,0.1295,0.1313,0.1319,0.1323,0.1329,0.135,0.1358,0.1278,0.1278,0.1278,0,0,0.1097,0.1106,0.1116,0.1133,0.1146,0.1159,0.1163,0.1188,0.1207,0.1205,0.1244,0.1256,0.1262,0.1289,0.1304,0.1292,0.1347,0.1326,0.133,0.1334,0.1354,0.1362,0.1368,0.128,0.128,0.1279,0,0,0.1106,0.1127,0.1138,0.1151,0.1175,0.1182,0.1195,0.1214,0.1235,0.1263,0.1273,0.1303,0.1321,0.1333,0.1339,0.1379,0.1374,0.1387,0.1417,0.1437,0.1443,0.1449,0.1461,0.1467,0.1389,0.1389,0.1389,0,0.1118,0.1129,0.1144,0.1157,0.1172,0.1195,0.121,0.123,0.1259,0.1278,0.1284,0.1331,0.1341,0.1373,0.1393,0.1391,0.1399,0.139,0.1443,0.1449,0.1454,0.1464,0.1471,0.1391,0.1391,0.1391,0.139,0,0.1124,0.1145,0.1154,0.1177,0.1196,0.1215,0.1239,0.127,0.1298,0.1315,0.1363,0.1378,0.1407,0.1417,0.1419,0.1466,0.1459,0.1447,0.1425,0.1464,0.1473,0.1479,0.1394,0.1393,0.1393,0.1392,0,0,0.1117,0.1152,0.1158,0.1173,0.121,0.1222,0.1263,0.1297,0.1329,0.1365,0.1402,0.144,0.1459,0.1469,0.1479,0.1501,0.1549,0.1498,0.1498,0.1505,0.1595,0.1497,0.1494,0.1549,0.155,0.1552,0.1585,0,0.112,0.1143,0.1163,0.1194,0.1207,0.1246,0.1278,0.1318,0.1355,0.1397,0.143,0.1468,0.1475,0.1498,0.1524,0.1546,0.1568,0.1541,0.156,0.156,0.1465,0.1498,0.1556,0.159,0.1591,0.1592,0.1593,0,0.1112,0.113,0.1158,0.1201,0.1213,0.1242,0.1301,0.1334,0.1396,0.1425,0.1473,0.1499,0.1554,0.1546,0.1604,0.159,0.1602,0.161,0.1611,0.151,0.1473,0.1544,0.1604,0.1603,0.1603,0.1602,0.1601,0,0.1083,0.1125,0.1149,0.1164,0.1216,0.125,0.1288,0.135,0.138,0.1454,0.1481,0.1541,0.1577,0.1609,0.1641,0.1631,0.1691,0.167,0.1591,0.1584,0.1645,0.1639,0.1707,0.1707,0.1706,0.1706,0.1706,0,0.1061,0.1083,0.1145,0.1156,0.1195,0.1244,0.1291,0.1339,0.1402,0.1434,0.1501,0.1529,0.1599,0.1639,0.1656,0.1644,0.1704,0.1602,0.1588,0.166,0.1655,0.1649,0.1642,0.1708,0.1707,0.1707,0.1707,0,0.1019,0.1058,0.109,0.1157,0.1181,0.1213,0.1285,0.1314,0.1385,0.1431,0.1458,0.1538,0.1588,0.1637,0.1689,0.165,0.1654,0.1633,0.1715,0.1704,0.1529,0.1524,0.1539,0.1536,0.1533,0.1531,0.1529,0,0.0995,0.1008,0.1081,0.1103,0.114,0.1193,0.1223,0.1299,0.1326,0.1422,0.1434,0.1513,0.1556,0.1541,0.161,0.1626,0.161,0.1597,0.1556,0.1528,0.1513,0.1512,0.151,0.1525,0.1524,0.1523,0.1523,0,0.0951,0.099,0.1018,0.1063,0.1105,0.1131,0.1187,0.1192,0.1275,0.1349,0.1365,0.139,0.144,0.1476,0.1501,0.1513,0.1596,0.1569,0.1574,0.1535,0.1511,0.1499,0.15,0.1513,0.1515,0.1516,0.1516,0,0.0925,0.0935,0.0981,0.101,0.1057,0.1063,0.1093,0.1118,0.1148,0.1248,0.1255,0.1338,0.1419,0.1418,0.1447,0.1447,0.1423,0.137,0.1384,0.1396,0.1335,0.1282,0.1206,0,0,0,0,0,0.0892,0.0895,0.0921,0.0946,0.0988,0.1012,0.1065,0.1095,0.1172,0.1146,0.1191,0.1229,0.1258,0.1309,0.1281,0.1403,0.1442,0.1366,0.1391,0.1462,0.1473,0.1416,0,0,0,0,0,0,0.087,0.0896,0.0899,0.0887,0.0892,0.0924,0.0952,0.1002,0.0986,0.1069,0.109,0.1156,0.1208,0.1261,0.1259,0.1276,0.1265,0.1423,0.142,0.1456,0.1466,0.1474,0.142,0,0,0,0,0]},{"header":{"parameterUnit":"m.s-1","parameterCategory":2,"la1":30.2991,"la2":30.254,"lo1":-89.0895,"lo2":-89.0444,"dy":0.0017,"dx":0.0017,"nx":28,"ny":28,"refTime":"2024-08-23T03:00:00:Z","depth":"4","parameterNumber":3,"parameterNumberName":"V-component_of_CURRENTS"},"data":[0,0,0,0,0,0,0,0,0,0,0,0,0,0,0,0,0,0,0,0,0,0,0,0,0,0,0,0,0,0,0,0,0,0,0,0,0,0,0,0,0,0,0,0,0,0,0,0,0,0,0,0,0,0,0,0,0,0,0.0024,0.0024,0,0.0001,0.0001,0.0001,-0.0009,-0.0009,-0.0009,-0.0009,-0.0025,-0.0026,-0.0026,0,0,0,0,0,0,0,0,0,0,0,0,0,0.0058,0.0057,0.0024,0.0024,0.0024,0.0001,0.0001,0.0001,-0.0009,-0.0009,-0.0009,-0.0009,-0.0025,-0.0026,-0.0026,0,0,0,0,0,0,0,0,0,0,0,0,0,0.004,0.0057,0.0024,0.0016,0.0015,0.0001,0.0001,0.0001,-0.0009,-0.0009,-0.0009,-0.0009,-0.0025,-0.0026,-0.0026,-0.003,0,0,-0.0028,-0.0029,0,0,0,0,0,0,0,0,0.0041,0.0039,0.0017,0.0016,0.0015,-0.0001,0.0007,-0.001,-0.0009,0.0001,-0.0009,-0.0009,-0.0017,-0.0018,-0.0022,-0.0031,-0.0032,-0.0028,-0.0029,-0.0029,-0.0029,0,0,0,0,0,0,0,0.0043,0.004,0.0016,0.0017,0.0016,0.0012,0.001,0.0004,-0.0007,-0.0,-0.0001,-0.0005,-0.0018,-0.0021,-0.0022,-0.0032,-0.0028,-0.0029,-0.0029,-0.003,-0.0044,-0.0044,0,0,0,0,0,0,0.0044,0.0041,0.0016,0.0015,0.0028,0.0012,0.0009,0.0004,-0.0007,-0.0009,-0.0005,-0.0005,-0.002,-0.0022,-0.0023,-0.0023,-0.0029,-0.003,-0.003,-0.0044,-0.0044,-0.0044,0,0,0,0,0,0,0.0045,0.0042,0.0017,0.0027,0.0024,0.0011,0.0006,0.0004,-0.0,-0.0011,-0.0013,-0.0006,-0.002,-0.0022,-0.0026,-0.0024,-0.003,-0.0031,-0.0044,-0.0044,-0.0044,-0.0027,0,0,0,0,0,0,0.0046,0.0043,0.0041,0.0027,0.0023,0.0012,0.0006,0.0003,-0.0003,-0.0003,-0.0013,-0.0015,-0.002,-0.0025,-0.0027,-0.0025,-0.0031,-0.0044,-0.0044,-0.0044,-0.0027,-0.0026,-0.0025,0,0,0,0,0,0.0048,0.0044,0.0041,0.0038,0.002,0.0012,0.001,0.0001,-0.0003,-0.0003,-0.0009,-0.0014,-0.0026,-0.0026,-0.0028,-0.0026,-0.0044,-0.0044,-0.0044,-0.0028,-0.0027,-0.0025,0,0,0,0,0,0,0.0056,0.0042,0.0038,0.0031,0.0023,0.001,0.0008,0.0002,-0.0004,-0.0004,-0.0014,-0.0016,-0.0018,-0.0025,-0.0024,-0.003,-0.0036,-0.0037,-0.0024,-0.0022,-0.0021,-0.0015,-0.0032,0,0,0,0,0,0.0057,0.0053,0.004,0.0035,0.0031,0.002,0.0016,0.001,0.0002,-0.0001,-0.0008,-0.0016,-0.002,-0.0023,-0.0029,-0.0032,-0.0044,-0.0033,-0.0032,-0.0031,-0.0028,-0.0047,-0.0047,-0.0043,-0.0043,-0.0043,0,0,0.0058,0.0051,0.0048,0.0037,0.003,0.003,0.0018,0.0012,0.0014,-0.0001,-0.0001,-0.0012,-0.002,-0.0023,-0.0025,-0.0028,-0.0038,-0.0031,-0.003,-0.0027,-0.0047,-0.0047,-0.0047,-0.0043,-0.0043,-0.0043,0,0,0.0063,0.0053,0.0054,0.005,0.0041,0.0035,0.0035,0.0022,0.002,0.0016,0.0007,-0.0002,-0.001,-0.0017,-0.002,-0.0017,-0.0032,-0.002,-0.0009,-0.0028,-0.0028,-0.0029,-0.0043,-0.0045,-0.0019,-0.0019,-0.0019,0,0.0066,0.0065,0.0053,0.0054,0.0055,0.004,0.0045,0.004,0.0028,0.0027,0.0019,0.0003,-0.0007,-0.0009,-0.0008,-0.0015,-0.0026,-0.0013,-0.0026,-0.0027,-0.0028,-0.0043,-0.0045,-0.0019,-0.0019,-0.0019,-0.0019,0,0.0073,0.0074,0.0074,0.0074,0.0072,0.0073,0.0065,0.0064,0.0056,0.0047,0.004,0.0024,0.0014,0.0007,0.0001,-0.0008,-0.0015,-0.0023,-0.0029,-0.0027,-0.0043,-0.0046,-0.0017,-0.0018,-0.0018,-0.0018,0,0,0.008,0.008,0.0082,0.0089,0.0084,0.0085,0.0089,0.0087,0.0091,0.0073,0.0075,0.0056,0.004,0.0035,0.0021,0.0004,-0.0015,-0.001,-0.0012,-0.0023,-0.0054,-0.0053,-0.0057,-0.0027,-0.0027,-0.0027,-0.0063,0,0.0093,0.0104,0.01,0.0115,0.0122,0.0115,0.0123,0.0118,0.0109,0.0106,0.0083,0.0077,0.0053,0.0049,0.0027,0.0,-0.0022,-0.0005,-0.0055,-0.0057,-0.0055,-0.006,-0.0028,-0.0065,-0.0065,-0.0066,-0.0066,0,0.0106,0.0113,0.0129,0.0143,0.0146,0.0154,0.0164,0.0167,0.0155,0.0147,0.0128,0.0109,0.0087,0.0065,0.0012,0.0024,-0.0014,-0.0041,-0.0043,-0.0049,-0.0061,-0.0068,-0.0072,-0.0071,-0.0071,-0.007,-0.007,0,0.0125,0.0137,0.0154,0.0158,0.0167,0.0178,0.0184,0.0178,0.0186,0.0171,0.0172,0.0136,0.0126,0.0073,0.0017,0.0013,-0.0042,-0.0056,-0.0094,-0.0094,-0.0091,-0.009,-0.0101,-0.0101,-0.0101,-0.0101,-0.01,0,0.0142,0.0157,0.0166,0.0177,0.0201,0.02,0.0219,0.0219,0.022,0.023,0.0194,0.0196,0.0127,0.0088,0.0028,-0.0036,-0.0037,-0.0091,-0.0104,-0.0083,-0.0081,-0.0093,-0.0092,-0.0102,-0.0102,-0.0101,-0.0101,0,0.0159,0.0164,0.0186,0.0202,0.0211,0.0228,0.0246,0.026,0.0257,0.0271,0.027,0.0241,0.0193,0.0121,0.004,-0.0014,-0.008,-0.0106,-0.0072,-0.0082,-0.0124,-0.0122,-0.0153,-0.0154,-0.0154,-0.0154,-0.0154,0,0.0167,0.018,0.0206,0.0221,0.023,0.0252,0.027,0.0277,0.0292,0.0301,0.0314,0.0278,0.0246,0.0139,0.0056,-0.0059,-0.008,-0.012,-0.0132,-0.0121,-0.013,-0.0127,-0.0124,-0.0154,-0.0155,-0.0155,-0.0155,0,0.0182,0.0192,0.0209,0.0238,0.0263,0.0288,0.0315,0.0331,0.0344,0.0346,0.0347,0.0291,0.0239,0.0147,0.0059,-0.0025,-0.0097,-0.0123,-0.0124,-0.0136,-0.0123,-0.0131,-0.0128,-0.0156,-0.0155,-0.0155,-0.0155,0,0.0192,0.0205,0.0225,0.0252,0.0284,0.0315,0.0328,0.0349,0.0363,0.0375,0.0376,0.0317,0.0283,0.0165,0.0086,0.0003,-0.0027,-0.0067,-0.0071,-0.0071,-0.0039,-0.0011,-0.0019,0,0,0,0,0,0.0199,0.021,0.0236,0.0263,0.0296,0.0312,0.0354,0.0366,0.0384,0.0389,0.0382,0.0332,0.0221,0.0179,0.0095,0.007,-0.0047,-0.0032,-0.0097,-0.016,-0.0159,-0.0137,0,0,0,0,0,0,0.0201,0.0223,0.0232,0.0266,0.0285,0.0321,0.0349,0.0365,0.0366,0.0376,0.0323,0.0297,0.0193,0.0266,0.0088,0.0064,0.0008,-0.0082,-0.0084,-0.0161,-0.016,-0.0159,-0.0136,0,0,0,0,0]}]]